Seattle, WA
on Tuesday, November 13, 2012

Tuesday
Previous Day Next Day
Daily Summary
 ActualAverageRecord
Temperature
Mean Temperature °F 46°F  
Max Temperature 52°F 51°F 62°F (1997)
Min Temperature 46°F 41°F 14°F (1955)
Degree Days
Heating Degree Days 16 19  
Month to date heating degree days 208 230  
Since 1 July heating degree days 701 827  
Cooling Degree Days 0 0  
Month to date cooling degree days 0 0  
Year to date cooling degree days 177 189  
Moisture
Dew Point 45°F   
Average Humidity 87    
Maximum Humidity 93    
Minimum Humidity 80    
Precipitation
Precipitation 0.21 in 0.23 in 1.68 in (1966)
Month to date precipitation 1.93 2.73  
Year to date precipitation 35.06 28.30  
Snow
Snow 0.00 in in 0.40 in (1964)
Month to date snowfall 0.0  
Since 1 July snowfall 0.0  
Snow Depth 0.00 in   
Wind
Wind Speed 6 mph   
Max Wind Speed 13 mph   
Max Gust Speed 15 mph   
Visibility 9 miles   
Events Rain   

Key: T is trace of precipitation, MM is missing value
Source: NWS Daily Summary
Time(PST)TemperatureDew PointHumidity Pressure Visibility Wind DirectionWind SpeedGust SpeedPrecipitationEvents Conditions
12:53 AM 48.0°F 45.0°F 89% 30.24 in 10.0 miles SSE 5.8 mph - N/A   Overcast
1:53 AM 48.0°F 45.0°F 89% 30.24 in 10.0 miles SSE 5.8 mph - 0.00 in   Overcast
2:53 AM 48.0°F 44.1°F 86% 30.22 in 10.0 miles SE 8.1 mph - 0.00 in   Overcast
3:18 AM 46.4°F 44.6°F 93% 30.20 in 5.0 miles South 4.6 mph - 0.01 in Rain Light Rain
3:45 AM 46.4°F 44.6°F 93% 30.20 in 10.0 miles South 4.6 mph - 0.04 in Rain Light Rain
3:53 AM 46.4°F 44.6°F 93% 30.20 in 10.0 miles South 4.6 mph - N/A Rain Light Rain
4:13 AM 46.4°F 44.6°F 93% 30.20 in 4.0 miles SE 3.5 mph - 0.02 in Rain Light Rain
4:53 AM 46.9°F 45.0°F 93% 30.23 in 4.0 miles SSE 4.6 mph - 0.04 in Rain Light Rain
5:01 AM 46.4°F 44.6°F 93% 30.20 in 5.0 miles SSE 6.9 mph - 0.00 in Rain Light Rain
5:11 AM 48.2°F 44.6°F 87% 30.20 in 5.0 miles SSE 6.9 mph - 0.00 in Rain Light Rain
5:53 AM 46.9°F 45.0°F 93% 30.23 in 10.0 miles SE 8.1 mph - 0.00 in   Overcast
6:53 AM 46.9°F 44.1°F 90% 30.22 in 10.0 miles SE 10.4 mph - 0.01 in   Overcast
7:53 AM 46.9°F 43.0°F 86% 30.22 in 10.0 miles SSE 9.2 mph - N/A   Overcast
8:53 AM 46.9°F 44.1°F 90% 30.23 in 10.0 miles SSE 5.8 mph - N/A   Overcast
9:53 AM 48.9°F 44.1°F 83% 30.23 in 10.0 miles SE 6.9 mph - N/A   Overcast
10:12 AM 48.2°F 44.6°F 87% 30.20 in 10.0 miles SE 8.1 mph - N/A   Overcast
10:53 AM 50.0°F 44.1°F 80% 30.23 in 10.0 miles SE 4.6 mph - N/A   Overcast
11:53 AM 51.1°F 44.1°F 77% 30.20 in 10.0 miles Variable 3.5 mph - 0.00 in Rain Light Rain
12:53 PM 51.1°F 45.0°F 80% 30.19 in 10.0 miles SW 4.6 mph - 0.00 in Rain Light Rain
1:47 PM 50.0°F 46.4°F 87% 30.17 in 7.0 miles SSW 5.8 mph - 0.01 in Rain Light Rain
1:53 PM 50.0°F 46.0°F 86% 30.19 in 7.0 miles SSW 4.6 mph - 0.02 in Rain Light Rain
2:25 PM 50.0°F 46.4°F 87% 30.16 in 7.0 miles SSW 4.6 mph - 0.01 in Rain Light Rain
2:53 PM 50.0°F 46.9°F 89% 30.18 in 7.0 miles South 3.5 mph - 0.03 in Rain Light Rain
3:20 PM 50.0°F 46.4°F 87% 30.15 in 7.0 miles South 4.6 mph - 0.03 in Rain Light Rain
3:41 PM 50.0°F 46.4°F 87% 30.15 in 10.0 miles South 4.6 mph - 0.03 in Rain Light Rain
3:53 PM 50.0°F 46.9°F 89% 30.18 in 10.0 miles South 5.8 mph - 0.03 in Rain Light Rain
4:14 PM 50.0°F 46.4°F 87% 30.15 in 9.0 miles SE 5.8 mph - 0.01 in Rain Light Rain
4:30 PM 50.0°F 46.4°F 87% 30.15 in 10.0 miles SE 5.8 mph - 0.01 in Rain Light Rain
4:53 PM 50.0°F 46.9°F 89% 30.17 in 10.0 miles SE 6.9 mph - 0.02 in Rain Light Rain
5:43 PM 48.2°F 46.4°F 93% 30.14 in 10.0 miles SE 5.8 mph - 0.00 in   Overcast
5:53 PM 48.9°F 46.9°F 93% 30.17 in 10.0 miles ESE 6.9 mph - 0.00 in   Overcast
6:00 PM 48.2°F 46.4°F 93% 30.14 in 10.0 miles ESE 6.9 mph - 0.00 in Rain Light Rain
6:53 PM 50.0°F 46.0°F 86% 30.17 in 10.0 miles SE 4.6 mph - 0.00 in Rain Light Rain
7:53 PM 48.9°F 46.0°F 90% 30.17 in 4.0 miles SSE 4.6 mph - 0.01 in Rain Light Rain
8:53 PM 48.9°F 46.0°F 90% 30.17 in 10.0 miles SE 6.9 mph - 0.01 in Rain Light Rain
9:53 PM 48.9°F 46.0°F 90% 30.18 in 10.0 miles South 6.9 mph - 0.00 in Rain Light Rain
10:42 PM 48.2°F 44.6°F 87% 30.17 in 10.0 miles Calm Calm - 0.00 in   Overcast
10:53 PM 48.9°F 46.0°F 90% 30.19 in 10.0 miles Calm Calm - 0.00 in   Overcast
11:12 PM 48.2°F 46.4°F 93% 30.16 in 10.0 miles South 3.5 mph - N/A   Overcast
11:21 PM 48.2°F 46.4°F 93% 30.16 in 10.0 miles South 3.5 mph - N/A   Overcast
11:53 PM 48.9°F 46.0°F 90% 30.20 in 9.0 miles South 4.6 mph - N/A   Overcast
Moon Phase
Nov. 13 Nov. 13 Nov. 20 Nov. 28 Dec. 06
Sunrise:07:11 AM (PST) Moon Rise:06:57 AM (PST)11/13
Sunset:04:34 PM (PST) Moon Set:04:30 PM (PST)11/13

Copyright © 2014 The Weather Underground, Inc.